Location: Hannover
(52.3723°N, 9.7339°E)
Time: 02:57:45
(UTC+02:00)

ISS - Visible Passes

Search period start: 27 May 2018 00:00
Search period end: 06 June 2018 00:00
Orbit: 402 x 407 km, 51.6° (Epoch: 27 May)

Date Brightness Start Highest point End Pass type
(mag) Time Alt. Az. Time Alt. Az. Time Alt. Az.
27 May -3.9 00:21:34 10° W 00:24:49 65° SSW 00:26:26 27° ESE visible
27 May -1.6 01:58:17 10° W 01:59:03 14° WSW 01:59:03 14° WSW visible
27 May -3.9 23:29:22 10° W 23:32:39 76° S 23:35:44 11° ESE visible
28 May -2.9 01:05:55 10° W 01:08:21 31° SW 01:08:21 31° SW visible
28 May -3.9 22:37:10 10° W 22:40:27 80° S 22:43:44 10° E visible
29 May -3.5 00:13:39 10° W 00:16:49 46° SSW 00:17:42 35° SSE visible
29 May -3.8 23:21:24 10° W 23:24:39 60° SSW 23:27:06 16° ESE visible
30 May -1.9 00:58:14 10° W 00:59:44 18° WSW 00:59:44 18° WSW visible
30 May -3.9 22:29:10 10° W 22:32:27 72° S 22:35:43 10° ESE visible
31 May -2.9 00:05:46 10° W 00:08:40 29° SSW 00:09:09 28° S visible
31 May -3.3 23:13:25 10° W 23:16:32 41° SSW 23:18:36 18° SE visible
01 Jun -3.6 22:21:08 10° W 22:24:21 55° SSW 22:27:34 10° ESE visible
01 Jun -2.0 23:58:06 10° W 00:00:22 18° SW 00:00:41 17° SSW visible
02 Jun -2.5 23:05:30 10° W 23:08:18 26° SSW 23:10:11 15° SSE visible
04 Jun -1.7 22:57:54 10° WSW 22:59:53 15° SW 23:01:52 10° S visible
